| time (UTC) | temp C | wind direction | speed KPH | gust KPH | rain 1hr cm | rain 24hr cm | rain mn cm | humidity % | barometer mb |
| 20260505171322 | 24 | 200 | 16.1 | 22.5 | 0.00 | 0.00 | 0.00 | ||
| 20260505170920 | 24 | 187 | 17.7 | 24.1 | 0.00 | 0.00 | 0.00 | ||
| 20260505170518 | 24 | 183 | 14.5 | 19.3 | 0.00 | 0.00 | 0.00 | ||
| 20260505165716 | 24 | 202 | 19.3 | 32.2 | 0.00 | 0.00 | 0.00 | ||
| 20260505165313 | 25 | 182 | 17.7 | 22.5 | 0.00 | 0.00 | 0.00 | ||
| 20260505164511 | 25 | 182 | 20.9 | 30.6 | 0.00 | 0.00 | 0.00 | ||
| 20260505164103 | 25 | 188 | 19.3 | 32.2 | 0.00 | 0.00 | 0.00 | ||
| 20260505163700 | 25 | 178 | 27.4 | 37.0 | 0.00 | 0.00 | 0.00 | ||
| 20260505163259 | 25 | 170 | 29.0 | 45.1 | 0.00 | 0.00 | 0.00 | ||
| 20260505162858 | 26 | 161 | 20.9 | 35.4 | 0.00 | 0.00 | 0.00 | ||
| 20260505162456 | 26 | 176 | 16.1 | 22.5 | 0.00 | 0.00 | 0.00 | ||
| 20260505162054 | 26 | 185 | 22.5 | 30.6 | 0.00 | 0.00 | 0.00 | ||
| 20260505161652 | 27 | 169 | 19.3 | 30.6 | 0.00 | 0.00 | 0.00 | ||
| 20260505161251 | 27 | 186 | 22.5 | 29.0 | 0.00 | 0.00 | 0.00 | ||
| 20260505160850 | 27 | 169 | 22.5 | 27.4 | 0.00 | 0.00 | 0.00 | ||
| 20260505160448 | 27 | 180 | 17.7 | 24.1 | 0.00 | 0.00 | 0.00 | ||
| 20260505153228 | 26 | 172 | 22.5 | 30.6 | 0.00 | 0.00 | 0.00 | ||
| 20260505152826 | 26 | 171 | 25.7 | 35.4 | 0.00 | 0.00 | 0.00 | ||
| 20260505152424 | 26 | 163 | 20.9 | 37.0 | 0.00 | 0.00 | 0.00 | ||
| 20260505152016 | 26 | 165 | 32.2 | 49.9 | 0.00 | 0.00 | 0.00 | ||
| 20260505151615 | 26 | 145 | 27.4 | 46.7 | 0.00 | 0.00 | 0.00 | ||
| 20260505151212 | 26 | 163 | 24.1 | 37.0 | 0.00 | 0.00 | 0.00 | ||
| 20260505150811 | 26 | 171 | 29.0 | 40.2 | 0.00 | 0.00 | 0.00 | ||
| 20260505150409 | 27 | 160 | 24.1 | 33.8 | 0.00 | 0.00 | 0.00 | ||
| 20260505140337 | 26 | 162 | 17.7 | 33.8 | 0.00 | 0.00 | 0.00 | ||
| 20260505130259 | 27 | 151 | 32.2 | 45.1 | 0.00 | 0.00 | 0.00 | ||
| 20260505124653 | 27 | 175 | 29.0 | 43.5 | 0.00 | 0.00 | 0.00 | ||
| 20260505124251 | 27 | 177 | 24.1 | 35.4 | 0.00 | 0.00 | 0.00 | ||
| 20260505123843 | 27 | 154 | 24.1 | 37.0 | 0.00 | 0.00 | 0.00 | ||
| 20260505123440 | 27 | 175 | 29.0 | 37.0 | 0.00 | 0.00 | 0.00 | ||
| 20260505123039 | 27 | 160 | 32.2 | 48.3 | 0.00 | 0.00 | 0.00 | ||
| 20260505122638 | 28 | 161 | 24.1 | 37.0 | 0.00 | 0.00 | 0.00 | ||
| 20260505122236 | 27 | 178 | 25.7 | 38.6 | 0.00 | 0.00 | 0.00 | ||
| 20260505121834 | 27 | 165 | 32.2 | 48.3 | 0.00 | 0.00 | 0.00 | ||
| 20260505121432 | 27 | 169 | 38.6 | 53.1 | 0.00 | 0.00 | 0.00 | ||
| 20260505121031 | 27 | 185 | 24.1 | 35.4 | 0.00 | 0.00 | 0.00 | ||
| 20260505120630 | 27 | 141 | 17.7 | 24.1 | 0.00 | 0.00 | 0.00 | ||
| 20260505120227 | 27 | 154 | 19.3 | 27.4 | 0.00 | 0.00 | 0.00 | ||
| 20260505115819 | 26 | 175 | 14.5 | 22.5 | 0.00 | 0.00 | 0.00 | ||
| 20260505115417 | 26 | 180 | 19.3 | 25.7 | 0.00 | 0.00 | 0.00 | ||
| 20260505115016 | 26 | 180 | 25.7 | 33.8 | 0.00 | 0.00 | 0.00 | ||
| 20260505114614 | 26 | 141 | 24.1 | 41.8 | 0.00 | 0.00 | 0.00 | ||
| 20260505114212 | 26 | 147 | 22.5 | 38.6 | 0.00 | 0.00 | 0.00 | ||
| 20260505113811 | 26 | 140 | 17.7 | 27.4 | 0.00 | 0.00 | 0.00 | ||
| 20260505113409 | 25 | 162 | 22.5 | 35.4 | 0.00 | 0.00 | 0.00 | ||
| 20260505113008 | 25 | 167 | 20.9 | 29.0 | 0.00 | 0.00 | 0.00 | ||
| 20260505112606 | 25 | 154 | 17.7 | 30.6 | 0.00 | 0.00 | 0.00 | ||
| 20260505112204 | 25 | 165 | 20.9 | 29.0 | 0.00 | 0.00 | 0.00 | ||
| 20260505111756 | 25 | 181 | 27.4 | 38.6 | 0.00 | 0.00 | 0.00 | ||
| 20260505111355 | 26 | 174 | 24.1 | 40.2 | 0.00 | 0.00 | 0.00 | ||
| 20260505110953 | 26 | 176 | 25.7 | 40.2 | 0.00 | 0.00 | 0.00 | ||
| 20260505110552 | 25 | 172 | 25.7 | 35.4 | 0.00 | 0.00 | 0.00 | ||
| 20260505110150 | 25 | 184 | 17.7 | 29.0 | 0.00 | 0.00 | 0.00 | ||
| 20260505101725 | 25 | 152 | 17.7 | 25.7 | 0.00 | 0.00 | 0.00 | ||
| 20260505101323 | 25 | 165 | 22.5 | 37.0 | 0.00 | 0.00 | 0.00 | ||
| 20260505100922 | 25 | 151 | 27.4 | 45.1 | 0.00 | 0.00 | 0.00 | ||
| 20260505100521 | 25 | 178 | 29.0 | 38.6 | 0.00 | 0.00 | 0.00 | ||
| 20260505100118 | 25 | 163 | 27.4 | 37.0 | 0.00 | 0.00 | 0.00 | ||
| 20260505095710 | 26 | 157 | 27.4 | 41.8 | 0.00 | 0.00 | 0.00 | ||
| 20260505095309 | 26 | 154 | 25.7 | 38.6 | 0.00 | 0.00 | 0.00 | ||
| 20260505094908 | 25 | 165 | 29.0 | 49.9 | 0.00 | 0.00 | 0.00 | ||
| 20260505094505 | 25 | 166 | 37.0 | 48.3 | 0.00 | 0.00 | 0.00 | ||
| 20260505094104 | 25 | 177 | 35.4 | 46.7 | 0.00 | 0.00 | 0.00 | ||
| 20260505093739 | 25 | 182 | 27.4 | 46.7 | 0.00 | 0.00 | 0.00 | ||
| 20260505093703 | 25 | 182 | 27.4 | 46.7 | 0.00 | 0.00 | 0.00 | ||
| 20260505093301 | 26 | 166 | 33.8 | 51.5 | 0.00 | 0.00 | 0.00 | ||
| 20260505092859 | 25 | 153 | 24.1 | 40.2 | 0.00 | 0.00 | 0.00 | ||
| 20260505092458 | 26 | 157 | 25.7 | 35.4 | 0.00 | 0.00 | 0.00 | ||
| 20260505092056 | 25 | 169 | 30.6 | 41.8 | 0.00 | 0.00 | 0.00 | ||
| 20260505091648 | 25 | 168 | 32.2 | 49.9 | 0.00 | 0.00 | 0.00 | ||
| 20260505091246 | 25 | 155 | 25.7 | 41.8 | 0.00 | 0.00 | 0.00 | ||
| 20260505090844 | 25 | 163 | 29.0 | 37.0 | 0.00 | 0.00 | 0.00 | ||
| 20260505090443 | 25 | 147 | 25.7 | 41.8 | 0.00 | 0.00 | 0.00 | ||
| 20260505090041 | 25 | 146 | 27.4 | 37.0 | 0.00 | 0.00 | 0.00 | ||
| 20260505085640 | 25 | 155 | 20.9 | 43.5 | 0.00 | 0.00 | 0.00 | ||
| 20260505085237 | 25 | 150 | 24.1 | 38.6 | 0.00 | 0.00 | 0.00 | ||
| 20260505084836 | 25 | 155 | 25.7 | 33.8 | 0.00 | 0.00 | 0.00 | ||
| 20260505084435 | 25 | 159 | 19.3 | 29.0 | 0.00 | 0.00 | 0.00 | ||
| 20260505084033 | 24 | 150 | 17.7 | 32.2 | 0.00 | 0.00 | 0.00 | ||
| 20260505083624 | 24 | 153 | 19.3 | 33.8 | 0.00 | 0.00 | 0.00 | ||
| 20260505083222 | 24 | 167 | 29.0 | 46.7 | 0.00 | 0.00 | 0.00 | ||
| 20260505082821 | 25 | 146 | 17.7 | 25.7 | 0.00 | 0.00 | 0.00 | ||
| 20260505082420 | 24 | 149 | 22.5 | 32.2 | 0.00 | 0.00 | 0.00 | ||
| 20260505082017 | 23 | 137 | 24.1 | 37.0 | 0.00 | 0.00 | 0.00 | ||
| 20260505081616 | 24 | 136 | 22.5 | 37.0 | 0.00 | 0.00 | 0.00 | ||
| 20260505081215 | 24 | 160 | 24.1 | 43.5 | 0.00 | 0.00 | 0.00 | ||
| 20260505080814 | 23 | 140 | 25.7 | 37.0 | 0.00 | 0.00 | 0.00 | ||
| 20260505080413 | 23 | 167 | 22.5 | 32.2 | 0.00 | 0.00 | 0.00 | ||
| 20260505080010 | 23 | 155 | 25.7 | 37.0 | 0.00 | 0.00 | 0.00 | ||
| 20260505075602 | 23 | 161 | 12.9 | 19.3 | 0.00 | 0.00 | 0.00 | ||
| 20260505075200 | 23 | 154 | 20.9 | 30.6 | 0.00 | 0.00 | 0.00 | ||
| 20260505074759 | 23 | 154 | 19.3 | 24.1 | 0.00 | 0.00 | 0.00 | ||
| 20260505074357 | 23 | 133 | 17.7 | 24.1 | 0.00 | 0.00 | 0.00 | ||
| 20260505073955 | 23 | 143 | 17.7 | 27.4 | 0.00 | 0.00 | 0.00 | ||
| 20260505073554 | 23 | 156 | 20.9 | 27.4 | 0.00 | 0.00 | 0.00 | ||
| 20260505073152 | 23 | 134 | 19.3 | 32.2 | 0.00 | 0.00 | 0.00 | ||
| 20260505072750 | 23 | 145 | 20.9 | 33.8 | 0.00 | 0.00 | 0.00 | ||
| 20260505072349 | 23 | 141 | 19.3 | 30.6 | 0.00 | 0.00 | 0.00 | ||
| 20260505071947 | 23 | 141 | 20.9 | 30.6 | 0.00 | 0.00 | 0.00 | ||
| 20260505071539 | 23 | 145 | 22.5 | 33.8 | 0.00 | 0.00 | 0.00 | ||
| 20260505071136 | 24 | 148 | 19.3 | 35.4 | 0.00 | 0.00 | 0.00 | ||
| 20260505070735 | 26 | 140 | 25.7 | 37.0 | 0.00 | 0.00 | 0.00 | ||
| 20260505070334 | 25 | 152 | 24.1 | 33.8 | 0.00 | 0.00 | 0.00 | ||
| 20260505065932 | 23 | 148 | 22.5 | 30.6 | 0.00 | 0.00 | 0.00 | ||
| 20260505065128 | 22 | 150 | 22.5 | 30.6 | 0.00 | 0.00 | 0.00 | ||
| 20260505064728 | 22 | 140 | 19.3 | 30.6 | 0.00 | 0.00 | 0.00 | ||
| 20260505064327 | 22 | 145 | 20.9 | 35.4 | 0.00 | 0.00 | 0.00 | ||
| 20260505063516 | 22 | 135 | 20.9 | 35.4 | 0.00 | 0.00 | 0.00 | ||
| 20260505063114 | 21 | 137 | 19.3 | 29.0 | 0.00 | 0.00 | 0.00 | ||
| 20260505062713 | 21 | 132 | 19.3 | 29.0 | 0.00 | 0.00 | 0.00 | ||
| 20260505062312 | 21 | 142 | 20.9 | 32.2 | 0.00 | 0.00 | 0.00 | ||
| 20260505061909 | 21 | 132 | 17.7 | 24.1 | 0.00 | 0.00 | 0.00 | ||
| 20260505061508 | 21 | 143 | 16.1 | 25.7 | 0.00 | 0.00 | 0.00 | ||
| 20260505061106 | 21 | 135 | 16.1 | 27.4 | 0.00 | 0.00 | 0.00 | ||
| 20260505060705 | 21 | 124 | 19.3 | 32.2 | 0.00 | 0.00 | 0.00 | ||
| 20260505060303 | 21 | 138 | 17.7 | 27.4 | 0.00 | 0.00 | 0.00 | ||
| 20260505055901 | 21 | 131 | 19.3 | 29.0 | 0.00 | 0.00 | 0.00 | ||
| 20260505055453 | 21 | 134 | 16.1 | 25.7 | 0.00 | 0.00 | 0.00 | ||
| 20260505055051 | 21 | 125 | 19.3 | 27.4 | 0.00 | 0.00 | 0.00 | ||
| 20260505054650 | 21 | 127 | 14.5 | 22.5 | 0.00 | 0.00 | 0.00 | ||
| 20260505054248 | 21 | 131 | 17.7 | 29.0 | 0.00 | 0.00 | 0.00 | ||
| 20260505053846 | 21 | 121 | 14.5 | 19.3 | 0.00 | 0.00 | 0.00 | ||
| 20260505053445 | 21 | 123 | 12.9 | 25.7 | 0.00 | 0.00 | 0.00 | ||
| 20260505053043 | 21 | 122 | 14.5 | 20.9 | 0.00 | 0.00 | 0.00 | ||
| 20260505052641 | 21 | 122 | 14.5 | 19.3 | 0.00 | 0.00 | 0.00 | ||
| 20260505052240 | 21 | 121 | 12.9 | 19.3 | 0.00 | 0.00 | 0.00 | ||
| 20260505051838 | 20 | 124 | 12.9 | 19.3 | 0.00 | 0.00 | 0.00 | ||
| 20260505051430 | 20 | 127 | 16.1 | 25.7 | 0.00 | 0.00 | 0.00 | ||
| 20260505051027 | 20 | 124 | 14.5 | 20.9 | 0.00 | 0.00 | 0.00 | ||
| 20260505050627 | 20 | 132 | 16.1 | 22.5 | 0.00 | 0.00 | 0.00 | ||
| 20260505050226 | 20 | 121 | 12.9 | 17.7 | 0.00 | 0.00 | 0.00 | ||
| 20260505041358 | 18 | 111 | 4.8 | 8.0 | 0.00 | 0.00 | 0.00 | ||
| 20260505040956 | 18 | 138 | 6.4 | 11.3 | 0.00 | 0.00 | 0.00 | ||
| 20260505040555 | 18 | 146 | 9.7 | 14.5 | 0.00 | 0.00 | 0.00 | ||
| 20260505040152 | 18 | 127 | 6.4 | 9.7 | 0.00 | 0.00 | 0.00 | ||
| 20260505035750 | 18 | 117 | 8.0 | 14.5 | 0.00 | 0.00 | 0.00 | ||
| 20260505035343 | 18 | 130 | 6.4 | 9.7 | 0.00 | 0.00 | 0.00 | ||
| 20260505034941 | 18 | 149 | 8.0 | 12.9 | 0.00 | 0.00 | 0.00 | ||
| 20260505034539 | 17 | 124 | 8.0 | 16.1 | 0.00 | 0.00 | 0.00 | ||
| 20260505034138 | 17 | 97 | 8.0 | 12.9 | 0.00 | 0.00 | 0.00 | ||
| 20260505033736 | 17 | 124 | 6.4 | 12.9 | 0.00 | 0.00 | 0.00 | ||
| 20260505033335 | 17 | 111 | 3.2 | 6.4 | 0.00 | 0.00 | 0.00 | ||
| 20260505032932 | 17 | 111 | 4.8 | 8.0 | 0.00 | 0.00 | 0.00 | ||
| 20260505032530 | 17 | 111 | 4.8 | 9.7 | 0.00 | 0.00 | 0.00 | ||
| 20260505032129 | 17 | 111 | 6.4 | 9.7 | 0.00 | 0.00 | 0.00 | ||
| 20260505031728 | 16 | 102 | 8.0 | 12.9 | 0.00 | 0.00 | 0.00 | ||
| 20260505031320 | 17 | 111 | 4.8 | 9.7 | 0.00 | 0.00 | 0.00 | ||
| 20260505030916 | 16 | 90 | 3.2 | 8.0 | 0.00 | 0.00 | 0.00 | ||
| 20260505030516 | 16 | 90 | 4.8 | 9.7 | 0.00 | 0.00 | 0.00 | ||
| 20260505030115 | 17 | 97 | 8.0 | 11.3 | 0.00 | 0.00 | 0.00 | ||
| 20260505025713 | 17 | 111 | 8.0 | 12.9 | 0.00 | 0.00 | 0.00 | ||
| 20260505025311 | 17 | 104 | 9.7 | 14.5 | 0.00 | 0.00 | 0.00 | ||
| 20260505024909 | 17 | 86 | 8.0 | 12.9 | 0.00 | 0.00 | 0.00 | ||
| 20260505024508 | 17 | 101 | 8.0 | 9.7 | 0.00 | 0.00 | 0.00 | ||
| 20260505024107 | 16 | 111 | 8.0 | 9.7 | 0.00 | 0.00 | 0.00 | ||
| 20260505023704 | 16 | 111 | 1.6 | 3.2 | 0.00 | 0.00 | 0.00 | ||
| 20260505023256 | 16 | 111 | 0.0 | 3.2 | 0.00 | 0.00 | 0.00 | ||
| 20260505022854 | 16 | 111 | 0.0 | 3.2 | 0.00 | 0.00 | 0.00 | ||
| 20260505022453 | 16 | 111 | 1.6 | 4.8 | 0.00 | 0.00 | 0.00 | ||
| 20260505021649 | 17 | 129 | 4.8 | 8.0 | 0.00 | 0.00 | 0.00 | ||
| 20260505021248 | 17 | 125 | 6.4 | 9.7 | 0.00 | 0.00 | 0.00 | ||
| 20260505020846 | 17 | 111 | 4.8 | 6.4 | 0.00 | 0.00 | 0.00 | ||
| 20260505020445 | 17 | 120 | 6.4 | 14.5 | 0.00 | 0.00 | 0.00 | ||
| 20260505020043 | 17 | 121 | 9.7 | 14.5 | 0.00 | 0.00 | 0.00 | ||
| 20260505015641 | 17 | 126 | 8.0 | 14.5 | 0.00 | 0.00 | 0.00 | ||
| 20260505015233 | 17 | 116 | 8.0 | 12.9 | 0.00 | 0.00 | 0.00 | ||
| 20260505014831 | 17 | 115 | 9.7 | 12.9 | 0.00 | 0.00 | 0.00 | ||
| 20260505014429 | 17 | 115 | 9.7 | 14.5 | 0.00 | 0.00 | 0.00 | ||
| 20260505014029 | 17 | 124 | 11.3 | 16.1 | 0.00 | 0.00 | 0.00 | ||
| 20260505013627 | 17 | 125 | 12.9 | 16.1 | 0.00 | 0.00 | 0.00 | ||
| 20260505013226 | 17 | 141 | 11.3 | 16.1 | 0.00 | 0.00 | 0.00 | ||
| 20260505012822 | 17 | 156 | 9.7 | 17.7 | 0.00 | 0.00 | 0.00 | ||
| 20260505012422 | 17 | 138 | 9.7 | 16.1 | 0.00 | 0.00 | 0.00 | ||
| 20260505012021 | 17 | 127 | 8.0 | 12.9 | 0.00 | 0.00 | 0.00 | ||
| 20260505011619 | 17 | 144 | 8.0 | 12.9 | 0.00 | 0.00 | 0.00 | ||
| 20260505011211 | 17 | 135 | 8.0 | 12.9 | 0.00 | 0.00 | 0.00 | ||
| 20260505010808 | 17 | 153 | 6.4 | 9.7 | 0.00 | 0.00 | 0.00 | ||
| 20260505010407 | 17 | 135 | 4.8 | 8.0 | 0.00 | 0.00 | 0.00 | ||
| 20260505010006 | 17 | 135 | 8.0 | 11.3 | 0.00 | 0.00 | 0.00 | ||
| 20260505005604 | 17 | 135 | 6.4 | 12.9 | 0.00 | 0.00 | 0.00 | ||
| 20260505005202 | 17 | 135 | 6.4 | 11.3 | 0.00 | 0.00 | 0.00 | ||
| 20260505004800 | 17 | 143 | 6.4 | 12.9 | 0.00 | 0.00 | 0.00 | ||
| 20260505004359 | 17 | 135 | 6.4 | 11.3 | 0.00 | 0.00 | 0.00 | ||
| 20260505003958 | 17 | 139 | 6.4 | 9.7 | 0.00 | 0.00 | 0.00 | ||
| 20260505003555 | 17 | 157 | 6.4 | 9.7 | 0.00 | 0.00 | 0.00 | ||
| 20260505003147 | 18 | 202 | 6.4 | 14.5 | 0.00 | 0.00 | 0.00 | ||
| 20260505002745 | 18 | 157 | 6.4 | 9.7 | 0.00 | 0.00 | 0.00 | ||
| 20260505002344 | 18 | 157 | 8.0 | 11.3 | 0.00 | 0.00 | 0.00 | ||
| 20260505001942 | 18 | 157 | 4.8 | 11.3 | 0.00 | 0.00 | 0.00 | ||
| 20260505001540 | 18 | 144 | 8.0 | 12.9 | 0.00 | 0.00 | 0.00 | ||
| 20260505001139 | 18 | 157 | 6.4 | 11.3 | 0.00 | 0.00 | 0.00 | ||
| 20260505000737 | 18 | 157 | 6.4 | 9.7 | 0.00 | 0.00 | 0.00 | ||
| 20260505000336 | 18 | 146 | 8.0 | 12.9 | 0.00 | 0.00 | 0.00 | ||
| 20260504235935 | 18 | 135 | 6.4 | 9.7 | 0.00 | 0.00 | 0.00 | ||
| 20260504235532 | 18 | 122 | 9.7 | 16.1 | 0.00 | 0.00 | 0.00 | ||
| 20260504235124 | 18 | 127 | 8.0 | 11.3 | 0.00 | 0.00 | 0.00 | ||
| 20260504234723 | 18 | 112 | 6.4 | 9.7 | 0.00 | 0.00 | 0.00 | ||
| 20260504234320 | 18 | 117 | 8.0 | 12.9 | 0.00 | 0.00 | 0.00 | ||
| 20260504233919 | 18 | 135 | 4.8 | 11.3 | 0.00 | 0.00 | 0.00 | ||
| 20260504233518 | 18 | 135 | 6.4 | 12.9 | 0.00 | 0.00 | 0.00 | ||
| 20260504233117 | 18 | 135 | 6.4 | 9.7 | 0.00 | 0.00 | 0.00 | ||
| 20260504232714 | 18 | 135 | 6.4 | 11.3 | 0.00 | 0.00 | 0.00 | ||
| 20260504232313 | 18 | 135 | 8.0 | 11.3 | 0.00 | 0.00 | 0.00 | ||
| 20260504231912 | 18 | 145 | 6.4 | 11.3 | 0.00 | 0.00 | 0.00 | ||
| 20260504231510 | 18 | 135 | 6.4 | 12.9 | 0.00 | 0.00 | 0.00 | ||
| 20260504231101 | 18 | 157 | 8.0 | 14.5 | 0.00 | 0.00 | 0.00 | ||
| 20260504230659 | 18 | 154 | 8.0 | 12.9 | 0.00 | 0.00 | 0.00 | ||
| 20260504230258 | 18 | 144 | 9.7 | 12.9 | 0.00 | 0.00 | 0.00 | ||
| 20260504225857 | 18 | 148 | 9.7 | 12.9 | 0.00 | 0.00 | 0.00 | ||
| 20260504225455 | 18 | 139 | 11.3 | 16.1 | 0.00 | 0.00 | 0.00 | ||
| 20260504225053 | 18 | 144 | 11.3 | 16.1 | 0.00 | 0.00 | 0.00 | ||
| 20260504224651 | 18 | 136 | 12.9 | 17.7 | 0.00 | 0.00 | 0.00 | ||
| 20260504224250 | 18 | 131 | 11.3 | 14.5 | 0.00 | 0.00 | 0.00 | ||
| 20260504223849 | 18 | 141 | 11.3 | 16.1 | 0.00 | 0.00 | 0.00 | ||
| 20260504223446 | 18 | 143 | 11.3 | 19.3 | 0.00 | 0.00 | 0.00 | ||
| 20260504223047 | 19 | 143 | 14.5 | 19.3 | 0.00 | 0.00 | 0.00 | ||
| 20260504223038 | 19 | 143 | 14.5 | 19.3 | 0.00 | 0.00 | 0.00 | ||
| 20260504222636 | 19 | 138 | 12.9 | 19.3 | 0.00 | 0.00 | 0.00 | ||
| 20260504222235 | 19 | 132 | 11.3 | 20.9 | 0.00 | 0.00 | 0.00 | ||
| 20260504221833 | 18 | 140 | 11.3 | 16.1 | 0.00 | 0.00 | 0.00 | ||
| 20260504221431 | 19 | 152 | 9.7 | 16.1 | 0.00 | 0.00 | 0.00 | ||
| 20260504221030 | 19 | 151 | 11.3 | 16.1 | 0.00 | 0.00 | 0.00 | ||
| 20260504220629 | 18 | 154 | 8.0 | 12.9 | 0.00 | 0.00 | 0.00 | ||
| 20260504220226 | 19 | 156 | 8.0 | 14.5 | 0.00 | 0.00 | 0.00 | ||
| 20260504215825 | 19 | 146 | 8.0 | 11.3 | 0.00 | 0.00 | 0.00 | ||
| 20260504215424 | 19 | 139 | 6.4 | 9.7 | 0.00 | 0.00 | 0.00 | ||
| 20260504215016 | 19 | 158 | 9.7 | 16.1 | 0.00 | 0.00 | 0.00 | ||
| 20260504214614 | 19 | 151 | 6.4 | 9.7 | 0.00 | 0.00 | 0.00 | ||
| 20260504214212 | 19 | 169 | 8.0 | 11.3 | 0.00 | 0.00 | 0.00 | ||
| 20260504213811 | 19 | 180 | 4.8 | 9.7 | 0.00 | 0.00 | 0.00 | ||
| 20260504213409 | 19 | 143 | 6.4 | 16.1 | 0.00 | 0.00 | 0.00 | ||
| 20260504213008 | 19 | 156 | 4.8 | 11.3 | 0.00 | 0.00 | 0.00 | ||
| 20260504212605 | 19 | 147 | 3.2 | 4.8 | 0.00 | 0.00 | 0.00 | ||
| 20260504212204 | 19 | 141 | 3.2 | 8.0 | 0.00 | 0.00 | 0.00 | ||
| 20260504211803 | 19 | 157 | 6.4 | 9.7 | 0.00 | 0.00 | 0.00 | ||
| 20260504211401 | 19 | 137 | 4.8 | 11.3 | 0.00 | 0.00 | 0.00 | ||
| 20260504210952 | 19 | 152 | 6.4 | 11.3 | 0.00 | 0.00 | 0.00 | ||
| 20260504210550 | 19 | 135 | 4.8 | 11.3 | 0.00 | 0.00 | 0.00 | ||
| 20260504210149 | 19 | 137 | 6.4 | 11.3 | 0.00 | 0.00 | 0.00 | ||
| 20260504205748 | 19 | 137 | 4.8 | 9.7 | 0.00 | 0.00 | 0.00 | ||
| 20260504205345 | 19 | 135 | 1.6 | 6.4 | 0.00 | 0.00 | 0.00 | ||
| 20260504204944 | 19 | 135 | 3.2 | 4.8 | 0.00 | 0.00 | 0.00 | ||
| 20260504204542 | 19 | 140 | 4.8 | 11.3 | 0.00 | 0.00 | 0.00 | ||
| 20260504204141 | 19 | 157 | 6.4 | 6.4 | 0.00 | 0.00 | 0.00 | ||
| 20260504203337 | 20 | 157 | 3.2 | 4.8 | 0.00 | 0.00 | 0.00 | ||
| 20260504202929 | 19 | 135 | 4.8 | 8.0 | 0.00 | 0.00 | 0.00 | ||
| 20260504202528 | 19 | 135 | 1.6 | 4.8 | 0.00 | 0.00 | 0.00 | ||
| 20260504202127 | 19 | 135 | 1.6 | 4.8 | 0.00 | 0.00 | 0.00 | ||
| 20260504201725 | 19 | 135 | 3.2 | 6.4 | 0.00 | 0.00 | 0.00 | ||
| 20260504201323 | 19 | 137 | 6.4 | 9.7 | 0.00 | 0.00 | 0.00 | ||
| 20260504200922 | 19 | 135 | 1.6 | 6.4 | 0.00 | 0.00 | 0.00 | ||
| 20260504200520 | 18 | 135 | 0.0 | 1.6 | 0.00 | 0.00 | 0.00 | ||
| 20260504200118 | 19 | 132 | 3.2 | 4.8 | 0.00 | 0.00 | 0.00 | ||
| 20260504195717 | 19 | 135 | 4.8 | 6.4 | 0.00 | 0.00 | 0.00 | ||
| 20260504195315 | 18 | 135 | 3.2 | 6.4 | 0.00 | 0.00 | 0.00 | ||
| 20260504194907 | 19 | 135 | 0.0 | 0.0 | 0.00 | 0.00 | 0.00 | ||
| 20260504194504 | 20 | 135 | 1.6 | 6.4 | 0.00 | 0.00 | 0.00 | ||
| 20260504194102 | 19 | 135 | 3.2 | 4.8 | 0.00 | 0.00 | 0.00 | ||
| 20260504193701 | 20 | 144 | 3.2 | 3.2 | 0.00 | 0.00 | 0.00 | ||
| 20260504193259 | 20 | 147 | 4.8 | 6.4 | 0.00 | 0.00 | 0.00 | ||
| 20260504192858 | 20 | 135 | 3.2 | 6.4 | 0.00 | 0.00 | 0.00 | ||
| 20260504192455 | 20 | 135 | 6.4 | 9.7 | 0.00 | 0.00 | 0.00 | ||
| 20260504192053 | 20 | 151 | 6.4 | 9.7 | 0.00 | 0.00 | 0.00 | ||
| 20260504191652 | 20 | 135 | 3.2 | 6.4 | 0.00 | 0.00 | 0.00 | ||
| 20260504191250 | 20 | 135 | 3.2 | 6.4 | 0.00 | 0.00 | 0.00 | ||
| 20260504190841 | 20 | 135 | 6.4 | 8.0 | 0.00 | 0.00 | 0.00 | ||
| 20260504190439 | 20 | 135 | 4.8 | 6.4 | 0.00 | 0.00 | 0.00 | ||
| 20260504190038 | 21 | 135 | 4.8 | 6.4 | 0.00 | 0.00 | 0.00 | ||
| 20260504185637 | 21 | 135 | 4.8 | 6.4 | 0.00 | 0.00 | 0.00 | ||
| 20260504185234 | 21 | 135 | 4.8 | 8.0 | 0.00 | 0.00 | 0.00 | ||
| 20260504184833 | 21 | 135 | 4.8 | 8.0 | 0.00 | 0.00 | 0.00 | ||
| 20260504184431 | 21 | 157 | 3.2 | 8.0 | 0.00 | 0.00 | 0.00 | ||
| 20260504184031 | 21 | 157 | 3.2 | 8.0 | 0.00 | 0.00 | 0.00 | ||
| 20260504183628 | 21 | 157 | 4.8 | 8.0 | 0.00 | 0.00 | 0.00 | ||
| 20260504183227 | 22 | 157 | 6.4 | 8.0 | 0.00 | 0.00 | 0.00 | ||
| 20260504182819 | 22 | 180 | 6.4 | 9.7 | 0.00 | 0.00 | 0.00 | ||
| 20260504182417 | 22 | 180 | 6.4 | 9.7 | 0.00 | 0.00 | 0.00 | ||
| 20260504182016 | 22 | 157 | 4.8 | 8.0 | 0.00 | 0.00 | 0.00 | ||
| 20260504181614 | 22 | 159 | 4.8 | 8.0 | 0.00 | 0.00 | 0.00 | ||
| 20260504181212 | 22 | 188 | 6.4 | 12.9 | 0.00 | 0.00 | 0.00 | ||
| 20260504180811 | 22 | 185 | 4.8 | 6.4 | 0.00 | 0.00 | 0.00 | ||
| 20260504180409 | 22 | 198 | 6.4 | 9.7 | 0.00 | 0.00 | 0.00 | ||
| 20260504180007 | 23 | 180 | 6.4 | 11.3 | 0.00 | 0.00 | 0.00 | ||
| 20260504175606 | 22 | 192 | 8.0 | 14.5 | 0.00 | 0.00 | 0.00 | ||
| 20260504175204 | 23 | 202 | 6.4 | 9.7 | 0.00 | 0.00 | 0.00 | ||
| 20260504174756 | 23 | 198 | 6.4 | 11.3 | 0.00 | 0.00 | 0.00 | ||
| 20260504174353 | 23 | 202 | 8.0 | 12.9 | 0.00 | 0.00 | 0.00 | ||
| 20260504173952 | 23 | 207 | 9.7 | 14.5 | 0.00 | 0.00 | 0.00 | ||
| 20260504173551 | 23 | 202 | 9.7 | 16.1 | 0.00 | 0.00 | 0.00 | ||
| 20260504173149 | 23 | 197 | 11.3 | 17.7 | 0.00 | 0.00 | 0.00 | ||
| 20260504172747 | 23 | 199 | 11.3 | 16.1 | 0.00 | 0.00 | 0.00 | ||
| 20260504172345 | 23 | 200 | 14.5 | 25.7 | 0.00 | 0.00 | 0.00 | ||
| 20260504171944 | 23 | 200 | 14.5 | 20.9 | 0.00 | 0.00 | 0.00 |